Back to catalog

FENGYUN 1C DEB

AliveSSO
NORAD 36216·DEBRIS·🇨🇳 China

Launched May 10, 1999 from Taiyuan Satellite Launch Center

Loading…

Next Passes (next 24 hours)

TLE

FreshSource: Space-Track

Epoch: Sep 12, 2026, 07:28 UTC

1 36216U 99025DUR 26255.31170458  .00000382  00000-0  20122-3 0  9995
2 36216  98.5945 272.4174 0043526 308.1026  51.6228 14.19190620682527

Track FENGYUN 1C DEB in real time with AllMySat

Download on the App Store